User: anonymous   Login
Location: Unspecified
(0.0000°N, 0.0000°E)
Time: 19:43:15
(UTC+00:00)
Language:

Gonets-D1 - Orbit

View from above orbital plane
View from above orbital plane
View from above satellite
View from above satellite

Ground track
Ground track

The orbit data is extracted from the following two-line orbital elements,

1 24726U 97006B   21026.11624097 -.00000001  00000-0 -62715-4 0  9992
2 24726  82.5976  73.5744 0004599 216.7981 143.2795 12.61342337102681
Epoch (UTC): 26 January 2021 02:47:23
Eccentricity: 0.0004599
inclination: 82.5976°
perigee height: 1414 km
apogee height: 1421 km
right ascension of ascending node: 73.5744°
argument of perigee: 216.7981°
revolutions per day: 12.61342337
mean anomaly at epoch: 143.2795°
orbit number at epoch: 10268

The dashed part of the orbit path shows where the satellite is in the earth's shadow,  

DLR